Total_Precipitation_Accumulation
2.05 2.43 2.80 3.26 3.70 4.25 5.06 5.75 6.33 6.45 6.32 5.98 5.61 5.36 4.92 4.64 4.35 4.08 3.92 3.67 3.40 3.29 3.69 3.41 3.78 3.63 3.61 3.45 3.43 3.62 3.66 3.30 3.47 3.82 3.35 2.79 2.43 2.33 2.17 2.15 2.27 2.18 2.31
1.96 2.35 2.89 3.20 3.56 4.13 4.74 5.13 5.22 5.02 4.96 5.04 4.96 4.69 4.69 4.52 4.46 4.28 4.13 3.60 3.42 3.34 3.14 3.38 3.23 3.22 3.39 3.21 3.16 3.37 3.37 3.01 3.29 3.59 3.68 3.13 2.86 2.38 1.80 1.99 2.15 2.24 2.51
1.61 1.99 2.55 2.88 3.08 3.61 3.99 3.99 3.95 3.91 4.04 4.15 4.10 4.15 4.41 4.49 4.57 4.52 4.28 3.83 3.64 3.51 3.33 3.23 3.05 3.02 2.88 3.08 3.14 3.19 3.32 3.27 3.15 3.19 3.54 3.26 2.91 2.44 1.95 1.87 2.10 2.43 2.72
1.35 1.66 2.01 2.27 2.56 2.86 3.03 3.02 3.14 3.26 3.34 3.45 3.50 3.40 3.44 3.71 3.99 4.23 4.33 4.21 3.94 3.69 3.38 3.16 2.95 2.79 2.64 2.98 2.69 2.82 3.15 3.38 3.05 2.95 2.87 2.86 3.00 2.90 2.51 2.06 1.91 2.16 2.38
1.40 1.59 1.72 1.92 2.03 2.13 2.28 2.35 2.62 3.03 3.21 3.34 3.51 3.44 3.15 3.17 3.27 3.41 3.60 3.62 3.63 3.46 3.11 3.00 2.92 2.73 2.55 2.63 2.66 3.00 3.01 2.98 2.89 2.95 2.89 2.98 3.17 2.96 2.82 2.49 2.35 2.41 2.27
1.12 1.34 1.62 1.74 1.72 1.71 1.87 2.10 2.39 2.93 3.23 3.36 3.31 3.33 3.31 3.34 3.22 3.19 3.29 3.20 3.20 3.12 2.86 2.73 2.85 2.71 2.59 2.65 2.66 2.79 2.86 3.00 3.05 3.03 3.00 3.06 3.06 3.08 3.26 2.90 2.65 2.60 2.27
0.91 0.91 1.10 1.36 1.35 1.32 1.51 1.78 1.99 2.46 2.81 3.00 2.90 2.86 3.04 3.20 3.05 2.85 2.80 2.78 2.62 2.56 2.54 2.60 2.73 2.61 2.63 2.70 2.83 2.88 2.85 2.97 3.00 2.91 3.00 3.08 3.03 3.15 3.29 3.21 2.83 2.56 2.26
0.70 0.66 0.72 0.92 1.17 1.19 1.29 1.43 1.66 1.95 2.28 2.50 2.57 2.65 2.85 2.97 2.91 3.10 2.83 2.67 2.33 2.18 2.25 2.46 2.52 2.47 2.44 2.47 2.93 2.93 2.93 3.04 2.97 2.80 3.14 3.16 2.92 3.12 3.29 3.42 3.48 3.08 2.79
0.63 0.66 0.70 0.91 1.00 0.98 1.06 1.23 1.44 1.64 1.86 2.12 2.35 2.44 2.42 2.44 2.60 2.78 2.73 2.57 2.47 2.20 2.24 2.31 2.52 2.63 2.72 2.79 2.98 2.91 2.94 3.15 3.09 3.02 3.23 3.17 2.97 3.01 3.09 3.34 3.65 3.75 3.47
0.67 0.66 0.67 0.72 0.77 0.83 0.95 1.16 1.37 1.40 1.61 2.01 2.29 2.28 2.37 2.29 2.44 2.42 2.41 2.45 2.36 2.29 2.35 2.35 2.43 2.60 2.71 2.78 2.94 2.94 3.00 3.18 3.18 3.26 3.34 3.19 2.92 3.09 3.09 3.20 3.55 3.88 3.96
0.72 0.67 0.66 0.66 0.78 0.72 0.81 1.01 1.15 1.28 1.58 1.94 2.27 2.41 2.35 2.32 2.39 2.23 2.18 2.29 2.30 2.28 2.37 2.39 2.39 2.36 2.49 2.70 2.94 2.87 3.05 3.17 3.20 3.16 3.08 2.99 3.05 3.24 3.16 3.27 3.43 3.69 3.97
0.56 0.52 0.51 0.58 0.58 0.59 0.71 1.01 1.32 1.68 1.89 2.21 2.56 2.72 2.52 2.31 2.16 1.98 1.96 2.11 2.28 2.33 2.35 2.36 2.36 2.28 2.39 2.67 2.82 2.90 3.18 3.32 3.19 3.11 3.10 2.95 3.09 3.19 3.17 3.24 3.21 3.31 3.67
0.57 0.55 0.51 0.61 0.61 0.59 0.61 0.74 0.91 1.31 1.67 2.04 2.42 2.47 2.24 2.02 1.98 1.96 2.00 2.13 2.32 2.34 2.32 2.35 2.37 2.45 2.62 2.81 2.92 3.02 3.19 3.16 3.03 3.07 2.99 2.85 2.98 2.88 2.95 2.99 2.99 2.98 3.12
0.69 0.63 0.61 0.60 0.60 0.61 0.59 0.69 0.79 0.89 1.16 1.68 2.07 2.05 1.86 1.80 1.84 1.88 1.93 1.96 2.07 2.14 2.19 2.35 2.51 2.64 2.80 2.91 2.95 3.01 2.99 2.96 2.81 2.72 2.65 2.67 2.80 2.89 2.90 2.81 2.78 2.86 3.02
0.70 0.64 0.64 0.73 0.74 0.80 0.81 0.81 0.83 0.85 1.06 1.61 1.94 1.93 1.80 1.79 1.76 1.75 1.88 1.95 2.01 2.04 2.28 2.44 2.51 2.56 2.58 2.63 2.84 2.82 2.72 2.71 2.56 2.43 2.27 2.30 2.65 2.81 2.79 2.57 2.70 2.80 2.86
0.68 0.66 0.58 0.68 0.80 0.88 0.91 0.91 0.97 1.02 1.16 1.54 1.86 1.86 1.75 1.68 1.62 1.69 1.83 1.95 2.04 2.22 2.41 2.40 2.40 2.35 1.97 2.09 2.26 2.29 2.28 2.33 2.30 2.17 2.13 2.12 2.20 2.25 2.30 2.32 2.36 2.44 2.52
0.67 0.67 0.71 0.79 0.99 0.93 0.96 1.04 0.98 1.04 1.23 1.60 1.87 1.93 1.84 1.77 1.74 1.67 1.84 2.03 2.25 2.45 2.54 2.48 2.43 2.26 2.12 2.01 1.90 1.89 1.95 2.09 2.11 2.14 2.22 1.91 1.73 1.93 1.95 2.12 2.12 2.05 2.16
0.74 0.83 0.82 0.88 0.97 0.95 1.01 1.07 1.10 1.14 1.32 1.62 1.87 2.00 1.95 1.93 2.00 2.01 2.07 2.27 2.52 2.70 2.71 2.67 2.56 2.42 2.27 2.17 1.98 1.98 1.90 1.98 2.01 2.03 2.08 2.02 1.90 1.88 2.02 2.13 2.07 1.91 1.88
0.88 0.94 1.03 1.07 1.16 1.16 1.11 1.18 1.34 1.40 1.46 1.55 1.82 2.03 2.10 2.15 2.13 2.17 2.44 2.65 2.82 2.85 2.81 2.88 2.79 2.64 2.58 2.39 2.03 1.87 1.78 1.94 1.97 1.97 1.92 1.88 1.81 1.94 1.86 1.80 1.80 1.82 1.80
1.04 1.04 1.11 1.18 1.22 1.25 1.32 1.39 1.52 1.69 1.81 1.90 2.05 2.34 2.54 2.68 2.71 2.78 2.85 2.92 3.02 2.97 2.99 2.90 2.84 2.72 2.67 2.58 2.05 1.78 1.69 1.87 1.91 1.96 1.91 1.80 1.65 1.69 1.61 1.54 1.67 1.68 1.70
0.98 1.07 1.12 1.22 1.29 1.32 1.47 1.75 1.89 1.99 2.17 2.33 2.41 2.67 3.02 3.21 3.16 3.19 3.08 3.00 2.99 3.01 3.01 2.89 2.78 2.71 2.61 2.51 2.06 1.88 1.84 1.96 2.05 1.99 1.90 1.83 1.72 1.53 1.50 1.46 1.48 1.56 1.63
0.93 1.05 1.13 1.21 1.40 1.66 1.86 2.15 2.33 2.39 2.47 2.64 2.94 3.18 3.36 3.18 3.08 3.27 3.15 3.16 3.21 3.19 3.08 2.98 2.87 2.91 2.80 2.53 2.19 1.98 1.97 2.04 2.10 2.13 2.08 1.99 1.81 1.58 1.52 1.42 1.38 1.39 1.32
0.93 1.02 1.11 1.30 1.51 1.82 2.21 2.46 2.55 2.75 2.76 2.82 3.04 3.12 3.18 3.29 3.42 3.50 3.37 3.31 3.29 3.22 3.03 2.92 2.74 2.68 2.76 2.76 2.35 2.06 2.06 2.08 1.99 2.12 2.22 1.99 1.76 1.59 1.42 1.41 1.44 1.33 1.21
1.02 1.06 1.18 1.39 1.69 2.00 2.35 2.51 2.57 2.62 2.65 2.68 2.72 2.84 3.02 3.16 3.28 3.51 3.52 3.38 3.19 3.09 3.00 2.95 2.82 2.74 2.78 2.72 2.34 2.02 1.99 2.03 1.95 1.98 2.08 1.96 1.79 1.64 1.50 1.45 1.42 1.32 1.35
1.10 1.21 1.32 1.43 1.59 1.87 2.16 2.29 2.45 2.56 2.73 2.77 2.69 2.61 2.65 2.78 2.93 3.06 3.15 3.08 3.05 2.93 2.80 2.62 2.56 2.53 2.54 2.55 2.30 2.03 1.98 2.10 2.19 2.15 2.12 2.07 1.93 1.78 1.65 1.60 1.62 1.66 1.66
1.08 1.20 1.34 1.51 1.69 1.88 2.09 2.21 2.39 2.53 2.69 2.72 2.61 2.55 2.50 2.57 2.63 2.64 2.62 2.49 2.39 2.27 2.10 2.02 1.96 1.92 1.98 2.16 2.02 1.87 1.91 2.12 2.27 2.15 2.04 2.12 2.06 1.92 1.81 1.77 1.77 1.77 1.73